Time,TemperatureF,DewpointF,PressureIn,WindDirection,WindDirectionDegrees,WindSpeedMPH,WindSpeedGustMPH,Humidity,HourlyPrecipIn,Conditions,Clouds,dailyrainin,SoftwareType,DateUTC
2016-02-12 00:00:00,8.1,-0.3,30.37,NW,311,5.0,12.0,68,0.00,,,0.00,Wunderground v.1.15,2016-02-12 03:00:00,
2016-02-12 00:05:00,7.8,-0.6,30.37,WNW,289,6.0,12.0,68,0.00,,,0.00,Wunderground v.1.15,2016-02-12 03:05:00,
2016-02-12 00:20:00,7.4,-1.0,30.37,NW,311,4.0,12.0,68,0.00,,,0.00,Wunderground v.1.15,2016-02-12 03:20:00,
2016-02-12 00:30:00,7.4,-0.6,30.37,NW,305,4.0,12.0,69,0.00,,,0.00,Wunderground v.1.15,2016-02-12 03:30:00,
2016-02-12 00:40:00,7.3,-1.1,30.37,North,350,4.0,12.0,68,0.00,,,0.00,Wunderground v.1.15,2016-02-12 03:40:00,
2016-02-12 00:45:00,7.2,-1.2,30.38,NNW,329,4.0,12.0,68,0.00,,,0.00,Wunderground v.1.15,2016-02-12 03:45:00,
2016-02-12 01:00:00,7.2,-0.5,30.38,NE,43,2.0,12.0,70,0.00,,,0.00,Wunderground v.1.15,2016-02-12 04:00:00,
2016-02-12 01:05:00,7.3,-0.7,30.38,NW,313,4.0,12.0,69,0.00,,,0.00,Wunderground v.1.15,2016-02-12 04:05:00,
2016-02-12 01:10:00,7.2,-1.2,30.38,NNW,327,5.0,12.0,68,0.00,,,0.00,Wunderground v.1.15,2016-02-12 04:10:00,
2016-02-12 01:20:00,7.0,-0.7,30.38,WNW,283,4.0,12.0,70,0.00,,,0.00,Wunderground v.1.15,2016-02-12 04:20:00,
2016-02-12 01:25:00,7.0,-0.7,30.38,North,355,4.0,12.0,70,0.00,,,0.00,Wunderground v.1.15,2016-02-12 04:25:00,
2016-02-12 01:35:00,6.9,-0.8,30.39,WNW,303,3.0,12.0,70,0.00,,,0.00,Wunderground v.1.15,2016-02-12 04:35:00,
2016-02-12 01:40:00,6.9,-0.8,30.39,WNW,303,3.0,12.0,70,0.00,,,0.00,Wunderground v.1.15,2016-02-12 04:40:00,
2016-02-12 01:50:00,6.8,-0.9,30.38,North,9,3.0,3.0,70,0.00,,,0.00,Wunderground v.1.15,2016-02-12 04:50:00,
2016-02-12 01:55:00,6.7,-1.0,30.38,NE,41,3.0,12.0,70,0.00,,,0.00,Wunderground v.1.15,2016-02-12 04:55:00,
2016-02-12 02:00:00,6.7,-1.0,30.38,North,350,3.0,3.0,70,0.00,,,0.00,Wunderground v.1.15,2016-02-12 05:00:00,
2016-02-12 02:10:00,6.6,-1.1,30.38,NNW,336,3.0,3.0,70,0.00,,,0.00,Wunderground v.1.15,2016-02-12 05:10:00,
2016-02-12 02:15:00,6.7,-1.3,30.38,NW,318,3.0,12.0,69,0.00,,,0.00,Wunderground v.1.15,2016-02-12 05:15:00,
2016-02-12 02:25:00,7.0,-1.0,30.38,NNE,19,3.0,12.0,69,0.00,,,0.00,Wunderground v.1.15,2016-02-12 05:25:00,
2016-02-12 02:30:00,7.1,-0.9,30.38,NNW,342,2.0,12.0,69,0.00,,,0.00,Wunderground v.1.15,2016-02-12 05:30:00,
2016-02-12 02:40:00,7.3,-0.1,30.37,NNW,346,3.0,3.0,71,0.00,,,0.00,Wunderground v.1.15,2016-02-12 05:40:00,
2016-02-12 02:50:00,7.6,0.2,30.38,NW,322,3.0,12.0,71,0.00,,,0.00,Wunderground v.1.15,2016-02-12 05:50:00,
2016-02-12 02:55:00,7.6,0.5,30.37,NW,316,3.0,12.0,72,0.00,,,0.00,Wunderground v.1.15,2016-02-12 05:55:00,
2016-02-12 03:05:00,7.8,0.0,30.37,North,360,3.0,12.0,70,0.00,,,0.00,Wunderground v.1.15,2016-02-12 06:05:00,
2016-02-12 03:10:00,7.8,0.3,30.37,NNW,338,4.0,4.0,71,0.00,,,0.00,Wunderground v.1.15,2016-02-12 06:10:00,
2016-02-12 03:15:00,7.6,0.2,30.37,North,355,5.0,5.0,71,0.00,,,0.00,Wunderground v.1.15,2016-02-12 06:15:00,
2016-02-12 03:20:00,7.6,0.5,30.37,North,10,5.0,5.0,72,0.00,,,0.00,Wunderground v.1.15,2016-02-12 06:20:00,
2016-02-12 03:30:00,7.5,0.7,30.37,NNW,327,4.0,4.0,73,0.00,,,0.00,Wunderground v.1.15,2016-02-12 06:30:00,
2016-02-12 03:40:00,7.8,0.9,30.37,NW,324,5.0,12.0,73,0.00,,,0.00,Wunderground v.1.15,2016-02-12 06:40:00,
2016-02-12 03:45:00,7.8,0.9,30.37,NNW,346,2.0,12.0,73,0.00,,,0.00,Wunderground v.1.15,2016-02-12 06:45:00,
2016-02-12 03:54:00,8.2,1.0,30.37,North,8,3.0,12.0,72,0.00,,,0.00,Wunderground v.1.15,2016-02-12 06:54:00,
2016-02-12 04:00:00,9.0,1.8,30.37,North,360,3.0,12.0,72,0.00,,,0.00,Wunderground v.1.15,2016-02-12 07:00:00,
2016-02-12 04:15:00,9.1,1.9,30.37,NNW,345,2.0,12.0,72,0.00,,,0.00,Wunderground v.1.15,2016-02-12 07:15:00,
2016-02-12 04:20:00,9.1,1.9,30.36,NNW,340,2.0,2.0,72,0.00,,,0.00,Wunderground v.1.15,2016-02-12 07:20:00,
2016-02-12 04:25:00,9.3,2.7,30.36,NW,308,2.0,5.0,74,0.00,,,0.00,Wunderground v.1.15,2016-02-12 07:25:00,
2016-02-12 04:30:00,9.4,2.8,30.35,NW,316,3.0,12.0,74,0.00,,,0.00,Wunderground v.1.15,2016-02-12 07:30:00,
2016-02-12 04:40:00,9.3,3.0,30.35,North,6,2.0,12.0,75,0.00,,,0.00,Wunderground v.1.15,2016-02-12 07:40:00,
2016-02-12 04:45:00,9.2,2.9,30.35,North,360,2.0,12.0,75,0.00,,,0.00,Wunderground v.1.15,2016-02-12 07:45:00,
2016-02-12 04:55:00,9.4,3.4,30.35,NNE,21,2.0,12.0,76,0.00,,,0.00,Wunderground v.1.15,2016-02-12 07:55:00,
2016-02-12 05:00:00,9.5,3.7,30.35,NNW,344,2.0,12.0,77,0.00,,,0.00,Wunderground v.1.15,2016-02-12 08:00:00,
2016-02-12 05:09:00,9.6,4.1,30.34,NNE,31,1.0,12.0,78,0.00,,,0.00,Wunderground v.1.15,2016-02-12 08:09:00,